SCP
0 0 0 0 0 0 0 0 1 1 0 1 1 1 1 1 1 2 3 3 3 4 5 6 8 9 9 10 10 9 6 4 4 4 4 4 3 4 5 5 5 4 5 6
0 0 0 0 0 0 0 0 0 0 0 1 1 1 1 1 2 2 3 3 3 4 6 8 10 11 11 11 11 9 6 4 4 4 4 4 3 3 4 4 4 4 5 6
0 0 0 0 0 0 0 0 1 1 0 1 1 2 2 2 3 3 2 2 3 5 8 10 11 10 10 11 12 10 7 5 4 4 4 4 3 3 3 3 3 3 4 5
0 0 0 0 0 0 0 0 1 1 0 1 1 2 2 3 3 3 2 2 4 8 11 12 10 8 8 11 13 11 8 5 4 4 4 4 3 2 2 2 2 2 3 3
0 0 0 0 0 0 0 0 1 1 0 1 1 1 2 3 3 3 2 2 5 10 13 12 8 6 6 10 13 12 8 6 5 4 4 4 3 2 2 2 2 1 2 2
0 0 0 0 0 0 0 0 1 1 1 1 1 1 2 3 3 3 2 2 5 11 13 10 6 4 6 10 12 10 7 7 6 5 4 3 3 3 2 1 1 1 1 1
0 0 0 0 0 0 0 0 1 1 1 1 1 1 2 2 3 3 2 2 5 8 9 7 5 4 6 9 11 9 7 7 6 4 4 3 3 3 2 2 1 1 1 1
0 0 0 0 0 0 0 0 0 0 0 1 1 1 1 2 2 2 2 2 4 5 5 5 5 6 6 7 9 9 8 7 6 4 3 3 3 3 2 2 2 1 1 1
0 0 0 0 0 0 0 0 0 0 0 0 1 1 1 1 1 2 2 3 3 2 2 4 5 6 6 6 7 8 8 7 5 3 2 2 2 2 2 2 2 2 2 2
0 0 0 0 0 0 0 0 0 0 0 0 1 1 1 1 1 2 2 2 2 2 2 3 5 6 7 6 7 7 7 6 4 2 1 1 1 1 1 1 2 2 2 2
0 0 0 0 0 0 0 0 1 1 1 1 1 1 1 1 2 2 2 2 2 2 2 3 4 5 6 6 6 6 5 4 3 2 1 1 1 1 1 1 1 2 2 2
1 1 1 0 0 0 0 0 1 1 1 1 0 1 1 1 2 2 2 2 2 2 3 3 3 4 5 5 4 4 3 2 2 1 1 1 1 1 1 1 1 1 1 1
1 1 1 1 0 0 0 1 1 1 1 1 0 1 1 1 1 1 1 2 3 3 3 3 3 3 3 3 3 3 2 2 1 1 1 1 1 1 1 1 1 1 1 1
1 1 1 1 1 0 0 1 1 1 1 1 0 1 1 1 1 1 1 2 3 4 4 4 4 4 3 3 3 3 2 2 2 2 1 1 2 2 2 2 2 1 1 1
1 1 1 1 1 0 0 1 1 1 1 1 0 1 1 2 1 1 1 3 5 4 4 4 4 4 3 3 3 3 3 2 2 2 2 2 2 3 3 3 3 2 1 1
1 1 1 1 0 0 0 1 1 1 0 0 0 1 1 1 1 1 1 3 5 5 4 4 5 5 4 4 3 3 3 3 2 2 2 3 3 4 4 3 3 3 2 1
2 2 2 1 1 0 0 1 1 1 1 1 1 1 1 1 1 1 1 3 5 6 5 5 5 5 5 5 4 3 3 3 3 3 3 3 4 4 4 4 3 3 2 2
2 3 2 2 1 1 1 1 1 1 1 1 1 1 1 1 1 1 2 3 5 6 6 6 6 6 6 6 5 4 3 3 3 3 3 4 5 5 5 4 3 3 2 2
2 3 2 2 1 1 0 1 1 1 1 1 1 1 1 1 1 2 3 4 6 7 7 6 5 5 7 7 7 6 5 4 4 3 3 4 4 5 4 4 3 3 2 2
2 3 3 2 1 1 1 1 1 1 1 1 1 1 1 1 1 3 4 6 7 7 7 6 5 5 8 10 9 8 6 5 4 3 3 3 3 3 3 3 3 3 2 2
2 3 3 2 2 1 1 1 1 2 2 2 2 2 2 2 2 4 6 7 8 7 7 6 6 8 11 13 13 11 8 5 4 3 3 3 2 2 2 3 3 3 2 2
2 3 3 3 2 2 1 1 2 3 3 3 3 3 2 3 3 5 6 7 8 7 6 7 8 11 13 14 14 12 9 6 5 4 3 3 3 2 2 2 3 2 2 2
2 2 3 3 2 2 2 1 2 2 2 2 3 3 3 3 3 4 5 6 7 7 7 8 9 11 12 12 12 10 8 6 5 4 3 3 3 3 2 2 2 2 2 2
1 2 3 3 3 2 1 1 1 1 1 1 2 3 3 3 4 4 3 4 6 8 9 9 9 9 10 9 8 7 6 5 4 3 3 3 3 2 3 2 2 2 1 1
1 2 2 2 2 2 1 1 1 1 1 1 1 2 3 4 5 5 4 3 4 8 10 10 10 10 10 9 8 7 7 7 6 5 4 3 2 2 3 3 2 2 1 1
1 2 2 2 1 1 1 1 1 1 0 0 0 1 2 4 5 6 5 4 4 7 10 11 11 11 11 11 9 9 9 9 7 6 5 3 2 2 3 3 2 1 1 1
Wind_Speed
12 11 11 10 11 9 10 10 9 4 4 4 5 4 7 8 6 7 6 5 5 5 6 5 4 4 5 4 3 2 2 1 1 0 0 1 1 1 1 1 1 1 1 1
12 13 12 11 8 7 8 10 10 4 1 3 4 5 5 6 7 7 6 6 5 5 4 4 4 4 4 4 3 3 2 1 1 0 0 1 1 2 2 1 1 1 2 2
11 9 10 10 9 9 10 10 9 5 4 7 7 6 5 6 5 4 6 6 6 5 5 5 3 3 3 4 4 3 2 1 1 1 0 1 1 2 1 0 1 1 1 2
10 10 10 10 11 9 9 9 8 7 7 8 8 6 7 7 5 5 4 5 5 6 5 4 3 3 2 3 3 3 3 2 1 1 1 2 2 1 2 1 1 1 2 2
9 8 9 9 9 7 9 10 9 10 10 11 8 5 4 7 6 5 6 5 4 5 6 5 4 3 2 3 3 3 3 2 1 0 1 1 1 1 1 1 1 1 2 2
10 10 9 7 7 8 10 10 10 10 9 10 7 4 3 5 5 5 4 4 4 3 4 5 5 4 2 3 4 3 2 2 1 1 1 1 2 2 1 2 1 1 1 1
9 10 6 4 7 7 8 7 6 6 5 6 2 2 4 5 6 5 4 3 3 3 4 4 4 4 3 3 3 3 3 2 2 1 1 1 2 2 2 2 2 2 1 1
7 6 3 4 6 5 6 7 6 6 6 5 4 2 5 6 7 5 4 4 4 2 3 3 4 4 3 3 3 3 3 1 1 1 1 1 1 1 1 1 2 2 1 1
6 5 4 4 5 6 6 6 8 7 10 8 1 3 5 5 5 4 4 5 4 3 3 3 4 4 3 3 2 3 2 1 1 1 1 1 1 1 1 1 2 2 1 1
6 7 6 4 7 9 7 7 5 6 7 7 3 2 2 4 3 3 3 5 4 4 3 3 4 4 3 3 3 3 2 1 1 1 1 1 1 1 1 1 1 1 2 2
5 6 8 6 7 6 6 6 5 6 7 7 4 2 4 4 2 2 2 4 4 4 4 4 3 3 3 3 3 2 2 2 2 1 1 1 1 1 1 1 1 1 1 2
3 4 7 8 4 4 6 6 4 5 7 7 5 2 4 4 3 3 3 4 4 4 4 4 4 3 2 2 2 2 2 3 2 2 2 1 1 1 1 1 2 1 1 1
3 3 6 6 4 5 6 4 4 4 4 5 5 1 2 3 3 3 3 4 4 4 3 4 4 3 2 1 1 1 2 2 2 2 2 1 1 2 1 1 1 1 1 1
2 4 6 7 6 6 7 7 5 5 5 6 5 1 3 3 2 2 1 3 3 4 3 4 4 3 2 1 0 1 2 2 2 1 1 1 2 2 2 2 2 1 2 1
4 7 8 9 10 10 9 8 7 6 7 8 5 1 3 3 2 1 1 2 3 3 2 3 4 3 2 1 0 0 1 1 1 1 2 2 2 2 2 2 1 1 2 2
4 6 8 10 12 11 10 9 8 8 7 6 4 1 5 3 2 1 1 2 2 2 2 2 3 3 2 1 0 0 0 1 1 1 2 2 2 2 2 2 2 2 2 2
5 6 8 9 10 10 10 7 7 5 4 4 3 1 3 2 3 2 2 1 2 2 2 2 2 2 2 1 0 1 1 1 1 2 2 2 2 2 2 2 1 2 2 2
7 6 6 9 9 10 4 2 3 1 2 2 2 2 2 3 3 2 2 1 2 2 2 2 2 2 2 1 0 1 2 2 2 2 2 2 2 2 2 2 2 2 2 2
7 6 6 7 9 8 4 2 2 0 1 2 2 3 3 2 2 3 4 3 3 2 2 2 1 2 1 1 1 1 2 2 2 2 2 2 2 1 1 2 2 1 1 2
8 6 7 8 9 8 1 1 1 1 1 2 3 3 3 3 1 3 3 2 3 2 2 1 1 2 2 1 0 1 2 2 2 2 2 2 2 2 2 2 2 2 2 3
8 8 9 9 9 3 2 2 2 3 3 4 4 4 4 3 3 3 2 2 2 2 1 1 1 1 2 1 0 1 2 2 2 2 2 2 2 2 2 2 2 2 3 3
7 6 7 6 7 2 4 3 3 4 4 3 3 3 2 2 3 3 2 2 2 1 1 1 1 1 2 2 2 2 2 2 2 2 2 3 3 3 2 1 2 3 3 3
3 2 2 2 2 4 5 5 4 3 3 3 4 3 2 3 3 3 3 2 1 1 1 0 0 1 1 2 2 2 2 2 2 2 3 3 3 2 2 2 3 3 3 3
1 1 0 1 3 4 5 5 3 3 2 3 3 3 3 2 2 2 2 2 2 1 1 1 1 0 1 1 2 2 2 2 2 3 3 3 3 3 2 2 3 2 2 2
5 4 3 0 2 2 3 3 4 3 3 3 4 4 4 3 3 2 1 1 2 1 0 0 1 2 2 1 2 2 2 1 2 3 3 4 4 4 3 3 2 2 1 1
4 4 3 0 2 0 1 2 3 4 4 4 4 4 4 4 3 3 2 1 1 2 1 1 1 2 2 2 2 2 2 2 2 3 4 4 3 3 3 2 2 2 2 2
Wind_Direction
235 233 242 251 250 261 280 279 277 254 179 233 239 201 175 184 180 174 167 154 143 139 132 125 126 127 124 127 126 122 114 109 135 127 247 252 245 255 255 195 155 182 202 232
240 239 244 255 262 270 269 275 273 270 206 266 262 237 196 186 191 176 160 153 143 137 132 131 132 130 137 138 130 123 118 115 140 118 263 252 265 253 225 203 190 215 205 216
241 252 250 253 258 257 258 263 270 281 278 264 261 243 211 184 186 170 161 150 144 145 143 136 139 142 149 146 140 132 139 158 162 150 247 286 260 267 266 187 249 260 234 216
247 252 254 252 253 247 259 269 270 262 255 260 245 253 203 178 188 183 174 159 150 145 142 145 145 155 175 160 146 134 140 144 139 164 220 254 255 260 278 267 227 266 252 237
249 255 258 257 263 268 270 276 267 257 257 261 246 251 181 162 191 190 182 169 153 151 152 153 154 162 171 145 122 114 120 121 118 190 229 249 289 302 306 293 232 252 252 245
255 249 248 262 272 264 271 272 266 253 257 256 243 243 178 173 163 173 169 143 140 141 142 143 143 141 137 119 113 122 131 132 136 179 196 245 265 276 297 301 298 282 269 254
252 241 230 246 263 253 267 279 284 281 257 265 255 212 140 134 136 145 139 122 111 138 130 130 137 126 115 121 121 130 136 158 163 175 210 234 256 266 271 283 285 279 281 264
268 252 230 241 267 283 275 272 278 291 290 284 249 184 126 114 115 119 122 122 121 118 118 122 129 127 139 138 131 130 137 152 154 180 217 248 277 277 284 292 295 287 289 271
292 273 262 236 262 269 264 273 287 285 281 282 281 107 115 111 110 110 119 118 121 120 112 112 120 123 120 129 134 132 130 139 170 223 196 211 248 284 298 309 286 288 302 304
277 289 263 220 243 241 260 281 286 281 286 287 257 190 139 128 132 142 140 133 134 130 129 122 118 121 130 141 149 134 133 168 204 241 243 221 224 269 305 309 314 311 316 310
274 271 269 239 228 258 253 262 279 295 296 304 311 57 102 120 121 130 110 110 111 128 134 131 127 129 144 151 146 152 167 176 185 210 217 248 214 245 262 270 286 297 292 294
258 275 278 280 280 279 270 279 288 287 302 308 307 71 64 85 87 93 108 110 108 120 132 132 129 127 136 145 137 152 174 174 187 195 189 224 222 235 244 276 284 290 284 279
337 286 274 263 254 261 263 274 277 282 289 290 293 154 129 80 52 52 88 110 116 121 127 120 112 116 117 115 127 158 183 178 189 193 187 208 235 249 247 263 273 273 269 258
277 263 268 279 289 294 281 286 281 272 282 282 284 192 156 105 100 57 70 114 123 123 124 115 105 97 96 90 113 192 201 190 199 197 205 201 232 248 239 232 245 249 254 248
255 263 264 268 274 273 273 277 282 277 269 274 282 294 86 96 84 82 147 128 122 115 114 110 104 101 99 83 49 259 204 186 188 201 219 210 215 230 230 224 226 233 255 265
219 268 280 279 278 278 277 269 265 269 272 273 278 5 84 86 90 93 120 130 127 113 98 102 104 108 106 85 247 330 245 197 196 224 236 222 207 221 229 219 201 211 233 255
238 246 269 273 278 285 274 270 269 280 300 300 292 34 93 91 69 59 56 120 135 132 105 95 108 115 120 133 307 281 284 252 237 246 252 244 210 216 225 232 218 226 240 252
258 257 262 272 277 272 279 304 277 314 7 359 36 49 61 74 82 80 64 83 108 113 107 98 107 128 138 157 186 237 241 243 241 250 251 248 233 223 216 215 218 234 243 254
224 240 259 267 269 267 249 281 329 358 40 32 36 38 41 67 104 83 62 68 78 79 82 87 119 136 132 128 167 243 272 270 267 266 262 263 252 238 232 233 234 230 236 249
206 206 242 259 272 281 293 21 349 202 151 52 55 40 30 28 353 65 67 68 80 76 93 103 145 144 138 137 170 245 280 288 287 286 289 288 281 269 259 247 240 232 234 239
209 215 231 248 261 268 24 28 287 256 95 50 43 41 22 21 13 39 55 49 69 82 116 153 172 162 154 148 141 266 280 284 291 303 302 293 284 275 250 236 235 246 244 248
238 241 243 251 256 253 39 28 42 64 67 44 27 26 20 23 36 23 36 46 61 61 93 157 161 170 158 164 188 246 271 292 306 304 296 293 289 280 272 220 244 252 249 245
253 290 315 347 75 90 79 78 88 93 66 23 358 352 356 12 21 15 8 14 38 62 97 114 172 160 150 171 196 244 271 287 293 300 304 302 296 291 287 252 245 248 252 254
283 35 258 141 113 87 68 61 51 62 49 8 350 339 357 358 358 357 356 0 360 44 72 50 30 201 205 203 223 233 249 253 271 290 294 288 279 267 261 255 259 258 264 261
328 309 292 185 106 83 67 43 6 12 9 357 344 341 349 348 336 340 347 3 359 10 44 329 267 262 254 233 241 247 259 248 260 267 267 270 262 258 252 246 266 276 285 281
293 295 282 332 100 66 46 25 354 348 342 342 338 328 331 335 336 344 2 14 360 348 320 286 274 270 269 265 262 266 259 261 269 265 264 270 267 251 243 246 249 245 238 185